Regional Weather Roundup
Issued by NWS

Home | Current Version | Previous Version | Graphics & Text | Print | Product List | Glossary On
Versions: 1 2 3 4 5 6 7 8 9 10 11 12 13 14 15 16 17 18 19 20 21 22 23 24 25 26 27 28 29 30 31 32 33 34 35 36 37 38 39 40 41 42 43 44 45 46 47 48 49 50
000
ASUS44 KMEG 221110
RWRTN
TENNESSEE HOURLY STATE WEATHER ROUNDUP
NATIONAL WEATHER SERVICE MEMPHIS TN
600 AM CDT FRI AUG 22 2014

TNZ002-004-019-021-049-052-054-088>092-221200-
WEST TENNESSEE

CITY           SKY/WX    TMP DP  RH WIND       PRES   REMARKS
MEMPHIS INTL   PTCLDY    77  71  82 S9        30.07R
NWS MEMPHIS      N/A     77 N/A N/A MISG        N/A
JACKSON        CLEAR     75  72  90 SW6       30.07R
DYERSBURG      CLEAR     75  64  69 CALM      30.06R
UNION CITY     CLEAR     73  72  94 S3        30.04R
PARIS          CLEAR     72  70  94 CALM      30.07R
HUNTINGDON     CLEAR     73  71  93 SW5       30.06R
LEXINGTON      CLEAR     72  72 100 CALM      30.07R
SAVANNAH       CLEAR     75  75 100 SW5       30.09R
$$

TNZ008-025-027-028-033-062-065-066-221200-
NORTH MIDDLE TENNESSEE

CITY           SKY/WX    TMP DP  RH WIND       PRES   REMARKS
NASHVILLE      PTCLDY    74  72  93 S5        30.07R
DICKSON        PTCLDY    73  72  94 SW6       30.07R
PORTLAND       PTCLDY    75  72  88 SW5       30.05R
CLARKSVILLE    PTCLDY    75  72  90 SW7       30.05R
LEBANON        PTCLDY    72  70  93 CALM      30.06R
SMYRNA         PTCLDY    72  72 100 CALM      30.09R FOG
MURFREESBORO   PTCLDY    74  70  87 S3        30.07R
COOKEVILLE     CLEAR     70  68  94 CALM      30.10R
GALLATIN       PTCLDY    72  72 100 CALM      30.07R
CROSSVILLE     PTCLDY    69  66  90 CALM      30.15R
$$

TNZ061-075-076-078-094-096-097-221200-
SOUTH MIDDLE TENNESSEE

CITY           SKY/WX    TMP DP  RH WIND       PRES   REMARKS
LEWISBURG      PTCLDY    71  68  90 CALM      30.08R
FAYETTEVILLE   CLEAR     72  70  94 CALM      30.11R
TULLAHOMA      CLEAR     68  66  94 CALM      30.12R
WINCHESTER     CLEAR     70  70 100 CALM      30.11R
MCMINNVILLE      N/A     70  70 100 CALM      30.11R VSB 3/4
COLUMBIA       CLEAR     73  73 100 SW3       30.07R
SHELBYVILLE    CLEAR     72  72 100 CALM      30.10R
$$

TNZ017-018-042-046-047-221200-
NORTHEAST TENNESSEE

CITY           SKY/WX    TMP DP  RH WIND       PRES   REMARKS
TRI CITIES     FOG       69  67  93 CALM      30.13R VSB 1
ELIZABETHTON   CLOUDY    68  68 100 CALM      30.14R
$$

TNZ012-013-036-069-073-074-221200-
CENTRAL EAST TENNESSEE

CITY           SKY/WX    TMP DP  RH WIND       PRES   REMARKS
KNOXVILLE      PTCLDY    73  69  87 W3        30.09R
OAK RIDGE      PTCLDY    71  70  96 CALM      30.11R
GATLINBURG     SUNNY     68  64  88 CALM      30.10R
MORRISTOWN     MOSUNNY   73  72  94 CALM      30.13R
$$

TNZ083-085-099-221200-
SOUTHEAST TENNESSEE

CITY           SKY/WX    TMP DP  RH WIND       PRES   REMARKS
CHATTANOOGA    PTCLDY    73  70  90 CALM      30.10R
$$

SKY/WX REPORTED AS FAIR MEANS FEW OR NO CLOUDS BELOW
12 THOUSAND FEET.




USA.gov is the U.S. government's official web portal to all federal, state and local government web resources and services.